Regional Weather Roundup
Issued by NWS

Home | Current Version | Previous Version | Text Only | Print | Product List | Glossary Off
Versions: 1 2 3 4 5 6 7 8 9 10 11 12 13 14 15 16 17 18 19 20 21 22 23 24 25 26 27 28 29 30 31 32 33 34 35 36 37 38 39 40 41 42 43 44 45 46 47 48 49 50

245
ASUS43 KDMX 240706
RWRIA

WEATHER ROUNDUP FOR IOWA
NATIONAL WEATHER SERVICE DES MOINES IA
200 AM CDT FRI MAR 24 2017

NOTE: "FAIR" INDICATES FEW OR NO CLOUDS BELOW 12,000 FEET WITH NO
SIGNIFICANT WEATHER AND/OR OBSTRUCTIONS TO VISIBILITY.

* - THESE STATIONS ARE NOT NWS STATIONS...THUS NOT UNDER NWS
QUALITY CONTROL.  THEY ALSO DO NOT REPORT WEATHER SUCH
AS PRECIPITATION OR FOG.

IAZ001>003-012>014-020>022-031>034-043>046-240800-
   NORTHWEST IOWA

CITY           SKY/WX    TMP DP  RH WIND       PRES   REMARKS
CARROLL *      CLOUDY    61  54  77 S14       29.71S
CHEROKEE *     CLOUDY    45  41  86 N7        29.75S
LE MARS *      CLOUDY    46  45  93 NE6       29.76F
ORANGE CITY *  LGT RAIN  43  43 100 NE8       29.73F
SHELDON *      LGT RAIN  41  41 100 NE10      29.77R
SIOUX CITY     LGT RAIN  49  49 100 SW5       29.75S
SPENCER        CLOUDY    42  40  92 NE9       29.77R
STORM LAKE *   LGT RAIN  43  39  87 N14G20    29.77R
$$

IAZ055>058-069>071-079>083-090>094-240800-
   SOUTHWEST IOWA

CITY           SKY/WX    TMP DP  RH WIND       PRES   REMARKS
ATLANTIC *     CLOUDY    68  48  49 SW17G23   29.72R
AUDUBON *      MOCLDY    66  50  55 S12G17    29.74R
CLARINDA *     CLOUDY    68  48  49 S21G26    29.74F
COUNCIL BLFS * CLOUDY    66  52  59 S14G23    29.71R
CRESTON *      MOCLDY    63  46  55 S17       29.77S
HARLAN  *      LGT RAIN  63  52  67 S12       29.76R
LAMONI         MOCLDY    62  46  55 S10       29.78S
RED OAK *      CLOUDY    68  48  49 S16G23    29.72R
SHENANDOAH *   MOCLDY    68  48  49 S21G30    29.71S
$$

IAZ047>049-059>061-072>074-084-240800-
   CENTRAL IOWA

CITY           SKY/WX    TMP DP  RH WIND       PRES   REMARKS
AMES           PTCLDY    50  42  74 SE9       29.76F
ANKENY *       PTCLDY    52  41  66 SE6       29.78S
BOONE *        MOCLDY    50  41  71 SE9G15    29.75R
CHARITON *     CLOUDY    55  45  67 SE10      29.79R
DES MOINES     MOCLDY    56  43  61 SE7       29.76S
GRINNELL*      CLOUDY    45  39  78 E6        29.82R
MARSHALLTOWN   CLOUDY    45  39  79 SE16      29.77S
NEWTON *       CLOUDY    48  41  76 SE10      29.78F
PELLA *        CLOUDY    50  42  73 SE7       29.81R
PERRY *          N/A     50  39  65 E6        29.74S
$$

IAZ004>006-015-016-023>025-035-036-240800-
   NORTH CENTRAL IOWA

CITY           SKY/WX    TMP DP  RH WIND       PRES   REMARKS
ALGONA *       CLOUDY    41  41 100 NE9       29.76S
CLARION *      CLOUDY    43  43 100 SE10      29.75R
ESTHERVILLE    CLOUDY    39  39 100 N6        29.79R FOG     WCI  35
FORT DODGE *   CLOUDY    46  39  76 E6        29.74F
MASON CITY     CLOUDY    40  37  89 E5        29.82R
FOREST CITY *  RAIN      39  37  93 SE10      29.77S WCI  32
WEBSTER CITY * CLOUDY    50  45  81 S8G14     29.73R
IOWA FALLS *     N/A     48  41  75 SE12      29.76F
$$

IAZ007>011-017>019-026>030-037>042-050>054-066-240800-
   NORTHEAST IOWA

CITY           SKY/WX    TMP DP  RH WIND       PRES   REMARKS
CEDAR RAPIDS   CLOUDY    43  41  93 SE9       29.83S
CHARLES CITY * CLOUDY    41  41 100 SE18G24   29.75F
CLINTON *      CLOUDY    43  39  86 SE10      29.89F
DECORAH *      CLOUDY    41  37  87 SE10      29.80F
DUBUQUE        PTCLDY    41  37  86 S13       29.85F
MONTICELLO *   CLOUDY    41  37  87 SE13      29.84S
OELWEIN *      CLOUDY    41  39  93 SE9       29.83S
WATERLOO       CLOUDY    42  38  85 E7        29.80F
$$

IAZ064-065-067-068-078-240800-
   EAST CENTRAL IOWA

CITY           SKY/WX    TMP DP  RH WIND       PRES   REMARKS
DAVENPORT      PTCLDY    51  42  71 S15       29.88S
IOWA CITY      CLOUDY    43  39  86 SE3       29.86F
MUSCATINE *    CLOUDY    43  39  87 CALM      29.88R
QUAD CITIES    PTCLDY    53  43  68 S6        29.88S
$$

IAZ062-063-075>077-085>089-095>099-240800-
   SOUTHEAST IOWA

CITY           SKY/WX    TMP DP  RH WIND       PRES   REMARKS
BURLINGTON     CLOUDY    54  45  71 S16       29.86F
FAIRFIELD *    CLOUDY    55  45  67 S10       29.83R
FORT MADISON * CLOUDY    52  45  76 S12       29.87F
KEOKUK *       CLOUDY    55  45  67 S9        29.86F
OSKALOOSA *      N/A     47  41  81 SE7       29.82R
CENTERVILLE *    N/A     61  48  63 S9        29.83R
OTTUMWA        CLOUDY    54  44  69 S9        29.82S
WASHINGTON *   CLOUDY    45  41  87 SE8       29.86R
$$

ABBREVIATIONS USED IN REMARKS
   TC - TEMPERATURES IN CELSIUS
  WCI - WIND CHILL INDEX
   HX - HEAT INDEX
  VSB - VISIBILITY
$$





USA.gov is the U.S. government's official web portal to all federal, state and local government web resources and services.